Latest Coastal Weather Observations for Browse Island

IDW60701

Issued at 7:25 am WST Monday 21 April 2014 (issued every 10 minutes, with the page automatically refreshed every 10 minutes)

About coastal observations | Map of coastal stations | Coastal observations for WA | Marine services | Other Formats
Station Details ID: 200784 Name: BROWSE ISLAND Lat: -14.11 Lon: 123.55 Height: 3.7 m
Data from the previous 72 hours. | See also: Recent months for locations in Western Australia
Date/Time
WST
Temp

°C
Wind Pressure Rain
since 9am
mm
Weather Cloud Vis
km
Sea
Height
m
Swell
Dir
 
Speed
knots
Gust
knots
hPa Trend Height
m
Period
s
Dir
21/07:00am 29.9 E 8 - 1010.7 - - - - - - - - -
21/06:30am 29.0 E 7 - 1010.0 - - - - - - - - -
21/06:00am 29.0 E 7 - 1010.6 - - - - - - - - -
21/05:30am 29.0 ENE 9 - 1010.0 - - - - - - - - -
21/05:00am 29.2 ENE 10 - 1009.8 - - - - - - - - -
21/04:30am 29.0 ENE 10 - 1009.0 - - - - - - - - -
21/04:00am 29.4 ENE 10 - 1009.6 - - - - - - - - -
21/03:30am 29.0 ENE 10 - 1009.0 - - - - - - - - -
21/03:00am 29.3 ENE 10 - 1009.6 - - - - - - - - -
21/02:30am 29.0 ENE 10 - 1009.0 - - - - - - - - -
21/02:00am 29.4 ENE 10 - 1009.6 - - - - - - - - -
21/01:30am 29.0 ENE 11 - 1009.0 - - - - - - - - -
21/01:00am 29.3 ENE 11 - 1009.8 - - - - - - - - -
21/12:30am 29.0 ENE 12 - 1010.0 - - - - - - - - -
21/12:00am 29.3 ENE 11 - 1010.0 - - - - - - - - -
 
Date/Time
WST
Temp

°C
Wind Pressure Rain
since 9am
mm
Weather Cloud Vis
km
Sea
Height
m
Swell
Dir
 
Speed
knots
Gust
knots
hPa Trend Height
m
Period
s
Dir
20/11:30pm 29.0 ENE 12 - 1010.0 - - - - - - - - -
20/11:00pm 29.4 ENE 13 - 1010.1 - - - - - - - - -
20/10:30pm 29.0 ENE 12 - 1010.0 - - - - - - - - -
20/10:00pm 29.6 ENE 12 - 1010.1 - - - - - - - - -
20/09:30pm 29.0 ENE 11 - 1010.0 - - - - - - - - -
20/09:00pm 29.3 ENE 10 - 1010.2 - - - - - - - - -
20/08:30pm 29.0 ENE 10 - 1010.0 - - - - - - - - -
20/08:00pm 29.5 ENE 11 - 1009.9 - - - - - - - - -
20/07:30pm 30.0 ENE 10 - 1009.0 - - - - - - - - -
20/07:00pm 29.6 ENE 10 - 1009.6 - - - - - - - - -
20/06:30pm 30.0 ENE 11 - 1009.0 - - - - - - - - -
20/06:00pm 29.7 ENE 11 - 1009.2 - - - - - - - - -
20/05:30pm 30.0 E 11 - 1009.0 - - - - - - - - -
20/05:00pm 30.2 E 10 - 1008.9 - - - - - - - - -
20/04:30pm 31.0 E 10 - 1008.0 - - - - - - - - -
20/04:00pm 31.0 E 12 - 1008.6 - - - - - - - - -
20/03:30pm 32.0 E 11 - 1008.0 - - - - - - - - -
20/03:00pm 31.7 E 12 - 1008.4 - - - - - - - - -
20/02:30pm 31.0 E 12 - 1008.0 - - - - - - - - -
20/02:00pm 31.8 E 12 - 1008.3 - - - - - - - - -
20/01:30pm 32.0 ESE 12 - 1008.0 - - - - - - - - -
20/01:00pm 31.7 ESE 13 - 1008.9 - - - - - - - - -
20/12:30pm 32.0 ESE 12 - 1009.0 - - - - - - - - -
20/12:00pm 31.8 ESE 12 - 1009.5 - - - - - - - - -
20/11:30am 31.0 SE 12 - 1009.0 - - - - - - - - -
20/11:00am 30.9 ESE 10 - 1010.2 - - - - - - - - -
20/10:30am 32.0 ESE 9 - 1010.0 - - - - - - - - -
20/10:00am 32.1 ESE 9 - 1010.9 - - - - - - - - -
20/09:30am 32.0 ESE 8 - 1011.0 - - - - - - - - -
20/09:00am 30.9 ESE 8 - 1010.9 - - - - - - - - -
20/08:30am 31.0 ESE 8 - 1010.0 - - - - - - - - -
20/08:00am 30.5 E 8 - 1010.6 - - - - - - - - -
20/07:30am 30.0 E 8 - 1010.0 - - - - - - - - -
20/07:00am 30.5 E 6 - 1010.4 - - - - - - - - -
20/06:30am 30.0 ENE 6 - 1010.0 - - - - - - - - -
20/06:00am 29.6 E 7 - 1009.9 - - - - - - - - -
20/05:30am 30.0 ENE 8 - 1009.0 - - - - - - - - -
20/05:00am 29.4 NE 7 - 1009.5 - - - - - - - - -
20/04:30am 30.0 ENE 7 - 1009.0 - - - - - - - - -
20/04:00am 29.7 ENE 8 - 1009.1 - - - - - - - - -
20/03:30am 30.0 NE 8 - 1009.0 - - - - - - - - -
20/03:00am 29.9 ENE 9 - 1009.3 - - - - - - - - -
20/02:30am 30.0 ENE 9 - 1009.0 - - - - - - - - -
20/02:00am 29.9 ENE 10 - 1009.4 - - - - - - - - -
20/01:30am 30.0 ENE 10 - 1009.0 - - - - - - - - -
20/01:00am 30.0 NE 9 - 1009.6 - - - - - - - - -
20/12:30am 30.0 ENE 11 - 1009.0 - - - - - - - - -
20/12:00am 29.9 ENE 10 - 1010.2 - - - - - - - - -
 
Date/Time
WST
Temp

°C
Wind Pressure Rain
since 9am
mm
Weather Cloud Vis
km
Sea
Height
m
Swell
Dir
 
Speed
knots
Gust
knots
hPa Trend Height
m
Period
s
Dir
19/11:30pm 30.0 ENE 9 - 1010.0 - - - - - - - - -
19/11:00pm 29.8 ENE 10 - 1010.6 - - - - - - - - -
19/10:30pm 30.0 ENE 11 - 1010.0 - - - - - - - - -
19/10:00pm 29.8 ENE 11 - 1010.8 - - - - - - - - -
19/09:30pm 30.0 ENE 11 - 1010.0 - - - - - - - - -
19/09:00pm 29.8 NE 11 - 1010.7 - - - - - - - - -
19/08:30pm 30.0 ENE 9 - 1011.0 - - - - - - - - -
19/08:00pm 29.9 NE 9 - 1010.7 - - - - - - - - -
19/07:30pm 30.0 ENE 8 - 1010.0 - - - - - - - - -
19/07:00pm 29.9 ENE 8 - 1010.0 - - - - - - - - -
19/06:30pm 30.0 ENE 9 - 1009.0 - - - - - - - - -
19/06:00pm 29.9 ENE 9 - 1009.1 - - - - - - - - -
19/05:30pm 30.0 ENE 10 - 1009.0 - - - - - - - - -
19/05:00pm 30.1 ENE 10 - 1008.7 - - - - - - - - -
19/04:30pm 31.0 E 12 - 1008.0 - - - - - - - - -
19/04:00pm 30.5 E 12 - 1008.4 - - - - - - - - -
19/03:30pm 31.0 E 11 - 1008.0 - - - - - - - - -
19/03:00pm 31.4 E 11 - 1008.4 - - - - - - - - -
19/02:30pm 32.0 E 11 - 1008.0 - - - - - - - - -
19/02:00pm 31.7 E 12 - 1008.5 - - - - - - - - -
19/01:30pm 32.0 E 13 - 1008.0 - - - - - - - - -
19/01:00pm 31.8 E 14 - 1008.7 - - - - - - - - -
19/12:30pm 32.0 E 13 - 1009.0 - - - - - - - - -
19/12:00pm 32.0 E 15 - 1009.5 - - - - - - - - -
19/11:30am 32.0 ESE 13 - 1009.0 - - - - - - - - -
19/11:00am 31.2 ESE 13 - 1010.1 - - - - - - - - -
19/10:30am 31.0 ESE 14 - 1010.0 - - - - - - - - -
19/10:00am 30.8 SE 13 - 1011.1 - - - - - - - - -
19/09:30am 32.0 SE 13 - 1011.0 - - - - - - - - -
19/09:00am 30.7 SE 11 - 1011.3 - - - - - - - - -
19/08:30am 30.0 SE 10 - 1011.0 - - - - - - - - -
19/08:00am 30.0 SE 9 - 1011.4 - - - - - - - - -
19/07:30am 30.0 SSE 9 - 1011.0 - - - - - - - - -
19/07:00am 29.4 SSE 9 - 1011.1 - - - - - - - - -
19/06:30am 29.0 SSE 8 - 1010.0 - - - - - - - - -
19/06:00am 29.2 S 8 - 1010.6 - - - - - - - - -
19/05:30am 29.0 SSE 8 - 1010.0 - - - - - - - - -
19/05:00am 29.3 SSE 7 - 1010.2 - - - - - - - - -
19/04:30am 29.0 SE 7 - 1010.0 - - - - - - - - -
19/04:00am 29.3 ESE 6 - 1010.0 - - - - - - - - -
19/03:30am 29.0 ESE 5 - 1010.0 - - - - - - - - -
19/03:00am 29.4 ESE 5 - 1010.5 - - - - - - - - -
19/02:30am 29.0 E 6 - 1010.0 - - - - - - - - -
19/02:00am 29.5 E 5 - 1010.5 - - - - - - - - -
19/01:30am 29.0 E 5 - 1010.0 - - - - - - - - -
19/01:00am 29.7 ESE 6 - 1010.9 - - - - - - - - -
19/12:30am 30.0 ESE 5 - 1011.0 - - - - - - - - -
19/12:00am 29.7 E 5 - 1011.5 - - - - - - - - -
 
Date/Time
WST
Temp

°C
Wind Pressure Rain
since 9am
mm
Weather Cloud Vis
km
Sea
Height
m
Swell
Dir
 
Speed
knots
Gust
knots
hPa Trend Height
m
Period
s
Dir
18/11:30pm 30.0 E 5 - 1011.0 - - - - - - - - -
18/11:00pm 29.8 E 5 - 1011.9 - - - - - - - - -
18/10:30pm 30.0 E 5 - 1012.0 - - - - - - - - -
18/10:00pm 30.0 ENE 6 - 1012.2 - - - - - - - - -
18/09:30pm 30.0 NE 6 - 1012.0 - - - - - - - - -
18/09:00pm 30.2 NE 6 - 1012.4 - - - - - - - - -
18/08:30pm 30.0 ENE 6 - 1012.0 - - - - - - - - -
18/08:00pm 30.1 ENE 5 - 1012.0 - - - - - - - - -
18/07:30pm 30.0 ENE 5 - 1011.0 - - - - - - - - -
18/07:00pm 29.9 ENE 7 - 1011.0 - - - - - - - - -
18/06:30pm 30.0 ENE 9 - 1010.0 - - - - - - - - -
18/06:00pm 30.0 E 9 - 1010.3 - - - - - - - - -
18/05:30pm 30.0 E 9 - 1010.0 - - - - - - - - -
18/05:00pm 30.6 E 9 - 1009.8 - - - - - - - - -
18/04:30pm 31.0 E 11 - 1009.0 - - - - - - - - -
18/04:00pm 31.1 E 11 - 1009.2 - - - - - - - - -
18/03:30pm 32.0 E 10 - 1009.0 - - - - - - - - -
18/03:00pm 32.0 E 11 - 1009.2 - - - - - - - - -
18/02:30pm 32.0 E 12 - 1009.0 - - - - - - - - -
18/02:00pm 31.8 E 12 - 1009.4 - - - - - - - - -
18/01:30pm 32.0 ESE 11 - 1009.0 - - - - - - - - -
18/01:00pm 32.1 ESE 10 - 1009.8 - - - - - - - - -
18/12:30pm 32.0 SE 11 - 1010.0 - - - - - - - - -
18/12:00pm 31.4 SE 12 - 1010.3 - - - - - - - - -
18/11:30am 31.0 SE 11 - 1010.0 - - - - - - - - -
18/11:00am 31.8 SE 11 - 1011.1 - - - - - - - - -
18/10:30am 31.0 SE 12 - 1011.0 - - - - - - - - -
18/10:00am 31.9 SE 10 - 1011.6 - - - - - - - - -
18/09:30am 31.0 SE 11 - 1012.0 - - - - - - - - -
18/09:00am 30.5 SE 10 - 1012.0 - - - - - - - - -
18/08:30am 30.0 SE 9 - 1011.0 - - - - - - - - -
18/08:00am 29.9 SSE 8 - 1011.6 - - - - - - - - -
18/07:30am 30.0 SSE 8 - 1011.0 - - - - - - - - -

Other Formats:

Comma delimited format used in spreadsheet applications
http://www.bom.gov.au/fwo/IDW60701/IDW60701.94103.axf

JavaScript Object Notation format (JSON) in row-major order
http://www.bom.gov.au/fwo/IDW60701/IDW60701.94103.json